Location: Cahas Mountain Overlook
(37.0833°N, 80.1000°W)
Time: 19:22:22
(UTC-04:00)

Tiros 1 - Pass Details

Date: 12 February 2026
Orbit: 618 x 649 km, 48.4° (Epoch: 13 March)

Event Time Altitude Azimuth Distance (km) Brightness Sun altitude
Rises 16:13:25 0° 307° (NW) 2,885 10.8 17.9°
Reaches altitude 10° 16:15:47 10° 313° (NW) 1,978 9.9 17.5°
Maximum altitude 16:20:12 49° 29° (NNE) 797 7.5 16.8°
Drops below altitude 10° 16:24:37 10° 104° (ESE) 1,980 9.3 16.1°
Sets 16:26:59 0° 110° (ESE) 2,888 10.1 15.6°
